CZ-6A DEB

Satellite information

Favourite Embed

Satellite Type and Status

DEBRISIN ORBIT

Key statistics

Satellite CZ-6A DEB at a glance.

Uptime

494

Days in orbit

Revolutions

≈ 14.6

Per day

Orbit

LEO

Low Earth Orbit

Inclination

89.0

Latest

Satellite identification and parameters

Extended collection of information and parameters for CZ-6A DEB.

Object identification

Identified? True

Debris? True

Object name: CZ-6A DEB

International designator: 2024-140ER

Object number (NORAD): 60766

Object ID (CCSDS): 60766

Country: PEOPLES REPUBLIC OF CHINA (PRC)

Current information (Y/N): Y

RCS size: SMALL

Orbital parameters

Period: 98.47 minutes

Inclination: 89.0476 deg

SMA: 7063.672 km

Apoapsis: 748.705 km

Periapsis: 622.37 km

RAAN: 295.369 deg

Eccentricy: 0.00894261

Argument of periapsis: 178.2546 deg

Mean anomaly: 181.8998 deg

Mean motion: 14.62368876 rev/day

Mean motion (dot): 0.00011292 rev/day2

B* drag term: 0.0021050991 1/REarth

Two-line elements (TLE)

Creation date: Dec. 12, 2025, 3:16 a.m.

Reference frame: TEME

Reference center: EARTH

Epoch: Dec. 11, 2025, 8:05 p.m. UTC

TLE line 0: 0 CZ-6A DEB

TLE line 1: 1 60766U 24140ER 25345.83735161 .00011292 00000-0 21051-2 0 9995

TLE line 2: 2 60766 89.0476 295.3690 0089426 178.2546 181.8998 14.62368876 70830

Live tracking on map

Real-time ground track for satellite CZ-6A DEB.

In-orbit conjunctions

A list of the most updated potential collisions computed for object CZ-6A DEB.

Target Orbit TCA Probability of collision Miss distance Type
NOAA 16 DEB SSO 2025-02-08 05:27:05 0.0001065073 778.0 (m) DEBRIS
IRIDIUM 33 DEB LEO 2025-01-29 16:22:54 0.0002320323 298.0 (m) DEBRIS
ARIANE 1 DEB SSO 2025-01-25 14:48:40 0.000324117 493.0 (m) DEBRIS
IRIDIUM 29 LEO 2025-01-17 01:19:38 0.004126419 140.0 (m) PAYLOAD

Associated space launch

18 Low Earth Orbit communication satellites with Ku, Q and V band payloads for the G60 constellation operated by Shanghai Spacecom Satellite Technology (SSST) with funding backed by the Shanghai local government. Initial constellation will consist of 1296 satellites by 2027 with long term plans to expand it to 12000 satellites.

CZ-6A DEB was lifted into orbit during the mission ‘Long March 6A | G60 Polar Group 01’, on board a Long March 6A space rocket.

The launch took place on Aug. 6, 2024, 6:42 a.m. from Launch Complex 9A.

For more information about the launch, click the button.

Launch to space Long March 6A | G60 Polar Group 01
Long March 6A | G60 Polar Group 01

Agency: N/A

Status: Launch Successful

Launch date: Aug. 6, 2024, 6:42 a.m. UTC

Rocket: Long March 6A

Launch pad: Launch Complex 9A

Location: Taiyuan Satellite Launch Center, People's Republic of China

...

Latest news about this satellite

News about space launch
Brightness of first Chinese broadband constellation satellites alarms astronomers

The first satellites of a Chinese broadband constellation are significantly brighter than those of Western systems, posing a new challenge for astronomers.

News about space launch
Chinese rocket stage breaks up into cloud of more than 700 pieces of space debris

HELSINKI — A Chinese Long March 6A rocket’s upper stage has fragmented into a cloud of over 700 pieces of space debris, adding to concerns about long-term orbital safety. China […]

News about space launch
China's Thousand Sails Megaconstellation Kicks Off with Dangerous Debris Field

China's Thousand Sails Megaconstellation Kicks Off with Dangerous Debris Field


Newsletter sign-up

Weekly statistics, charts and insights to help you stay on top of the space industry.